Tracking 29932 objects as of 3-Dec-2024
HD Live streaming from Space Station
objects crossing your sky now

STARLINK-30596

Track STARLINK-30596 now!
10-day predictions
STARLINK-30596 is classified as:


NORAD ID: 58110
Int'l Code: 2023-161P
Perigee: 481.4 km
Apogee: 483.2 km
Inclination: 53.2 °
Period: 94.1 minutes
Semi major axis: 6853 km
RCS: Unknown
Launch date: October 21, 2023
Source: United States (US)
Launch site: AIR FORCE WESTERN TEST RANGE (AFWTR)
Your satellite tracking list
Your tracking list is empty




NASA's NSSDC Master Catalog

Two Line Element Set (TLE):
1 58110U 23161P   24337.83905613  .00004278  00000-0  15639-3 0  9990
2 58110  53.1591 150.5415 0001253  67.3671 292.7462 15.30218420 63718
Source of the keplerian elements: AFSPC